FW6321 Weather Reports


time (UTC)temp
F
wind
direction
speed
knots
gust
knots
rain 1hr
in
rain 24hr
in
rain mn
in
humidity
%
barometer
mb
20260504010801 53 152 0.0 0.9 0.00 0.43 0.00 97 1012.4
20260504004628 53 184 0.9 0.9 0.00 0.43 0.00 97 1012.5
20260504004126 53 184 0.0 0.9 0.00 0.43 0.00 97 1012.4
20260504003642 54 185 0.0 0.9 0.00 0.43 0.00 97 1012.3
20260504002701 54 184 0.9 1.7 0.00 0.43 0.00 97 1012.2
20260504001615 54 184 0.0 1.7 0.00 0.43 0.00 97 1012.3
20260504001110 54 184 0.9 1.7 0.00 0.43 0.00 97 1012.4
20260504000611 54 184 0.9 1.7 0.00 0.43 0.00 97 1012.4
20260504000141 55 181 0.9 1.7 0.00 0.43 0.00 97 1012.5
20260503235146 55 181 0.0 1.7 0.00 0.43 0.00 97 1012.4
20260503234829 55 181 0.9 2.6 0.00 0.43 0.00 97 1012.5
20260503231604 56 181 2.6 5.2 0.00 0.43 0.00 97 1012.6
20260503231104 56 179 3.5 6.1 0.00 0.43 0.00 97 1012.8
20260503230613 56 148 3.5 6.1 0.00 0.43 0.00 97 1012.7
20260503230135 56 172 3.5 5.2 0.00 0.43 0.00 97 1012.7
20260503225100 55 186 1.7 5.2 0.00 0.43 0.00 97 1012.8
20260503224600 55 172 1.7 5.2 0.00 0.43 0.00 97 1012.7
20260503224120 55 166 0.9 3.5 0.00 0.43 0.00 97 1012.7
20260503223126 55 207 0.0 1.7 0.00 0.43 0.00 96 1012.6
20260503222126 55 207 0.0 1.7 0.00 0.43 0.00 96 1012.7
20260503221055 55 207 1.7 3.5 0.00 0.43 0.00 97 1012.8
20260503220553 55 202 1.7 2.6 0.00 0.43 0.00 96 1012.7
20260503220051 55 205 0.9 2.6 0.00 0.43 0.00 96 1012.6
20260503215550 55 183 0.9 2.6 0.00 0.43 0.43 96 1012.6
20260503215049 56 193 0.9 1.7 0.00 0.43 0.43 96 1012.6
20260503214621 56 187 0.9 1.7 0.00 0.43 0.43 96 1012.5
20260503213551 56 187 1.7 2.6 0.00 0.43 0.43 96 1012.5
20260503213046 56 177 1.7 4.3 0.00 0.44 0.43 96 1012.6
20260503212547 56 192 1.7 4.3 0.00 0.46 0.43 96 1012.5
20260503212049 56 181 1.7 4.3 0.00 0.49 0.43 96 1012.5
20260503211548 56 167 1.7 4.3 0.00 0.50 0.43 96 1012.6
20260503211047 56 184 1.7 4.3 0.00 0.51 0.43 96 1012.6
20260503210543 56 177 0.9 3.5 0.00 0.53 0.43 96 1012.5
20260503210046 56 183 1.7 3.5 0.00 0.56 0.43 96 1012.5
20260503205544 57 210 1.7 3.5 0.00 0.61 0.43 96 1012.5
20260503205042 57 206 2.6 4.3 0.00 0.67 0.43 96 1012.4
20260503204542 57 176 2.6 4.3 0.00 0.84 0.43 96 1012.3
20260503204043 57 166 2.6 4.3 0.00 1.08 0.43 96 1012.4
20260503203656 57 174 2.6 5.2 0.00 1.09 0.43 96 1012.4
20260503202044 57 163 2.6 6.1 0.00 1.09 0.43 96 1012.6
20260503201542 57 156 2.6 6.1 0.00 1.09 0.43 96 1012.6
20260503201041 57 166 3.5 7.0 0.00 1.09 0.43 96 1012.5
20260503200543 57 154 2.6 7.0 0.00 1.09 0.43 96 1012.4
20260503200042 57 169 2.6 4.3 0.00 1.09 0.43 96 1012.4
20260503195542 57 171 2.6 4.3 0.00 1.09 0.43 96 1012.5
20260503195044 57 172 2.6 4.3 0.00 1.09 0.43 96 1012.3
20260503194542 57 180 2.6 5.2 0.00 1.09 0.43 96 1012.4
20260503194043 57 168 2.6 5.2 0.01 1.09 0.43 96 1012.2
20260503193542 57 155 3.5 6.1 0.01 1.09 0.43 96 1012.1
20260503193043 57 162 3.5 7.0 0.02 1.09 0.43 96 1012.1
20260503192546 57 204 4.3 7.0 0.02 1.09 0.43 96 1012.0
20260503192042 57 171 4.3 7.8 0.02 1.09 0.43 96 1011.9
20260503191614 58 182 3.5 7.8 0.02 1.09 0.43 95 1011.8
20260503190545 58 178 4.3 7.8 0.02 1.09 0.43 95 1011.7
20260503190047 58 163 4.3 7.8 0.02 1.09 0.43 95 1011.7
20260503185542 58 169 3.5 7.0 0.02 1.09 0.43 95 1011.7
20260503185041 58 166 1.7 6.1 0.02 1.09 0.43 95 1011.7
20260503184542 59 162 1.7 4.3 0.02 1.09 0.43 95 1011.4
20260503184041 59 170 2.6 7.8 0.02 1.09 0.43 95 1011.4
20260503183542 59 150 3.5 7.8 0.02 1.09 0.43 95 1011.5
20260503183127 59 171 3.5 7.0 0.02 1.08 0.42 95 1011.5
20260503182038 59 187 3.5 7.0 0.02 1.08 0.42 95 1011.5
20260503181537 60 183 2.6 7.0 0.02 1.08 0.42 95 1011.5
20260503181038 60 173 2.6 6.1 0.02 1.08 0.42 95 1011.4
20260503180538 60 170 2.6 6.1 0.02 1.08 0.42 95 1011.5
20260503180041 60 150 2.6 5.2 0.01 1.07 0.41 95 1011.4
20260503175537 61 185 2.6 5.2 0.01 1.07 0.41 95 1011.5
20260503175038 61 180 2.6 5.2 0.01 1.07 0.41 95 1011.4
20260503174537 61 163 2.6 5.2 0.02 1.07 0.41 95 1011.4
20260503174036 61 145 2.6 5.2 0.03 1.07 0.41 95 1011.4
20260503173534 61 175 2.6 5.2 0.02 1.06 0.40 95 1011.5
20260503173035 61 172 1.7 5.2 0.03 1.06 0.40 95 1011.3
20260503172534 61 173 1.7 5.2 0.04 1.06 0.40 94 1011.2
20260503172030 61 207 1.7 3.5 0.04 1.06 0.40 94 1011.1
20260503171533 61 195 1.7 5.2 0.04 1.06 0.40 94 1011.0
20260503171032 61 207 1.7 5.2 0.04 1.06 0.40 94 1010.9
20260503170545 61 193 1.7 5.2 0.04 1.06 0.40 94 1011.0
20260503150514 61 179 0.9 3.5 0.09 1.02 0.36 97 1011.0
20260503131006 60 170 2.6 6.1 0.02 0.93 0.27 96 1011.7
20260503130504 60 174 2.6 6.1 0.02 0.93 0.27 96 1011.6
20260503090503 62 233 5.2 11.3 0.00 0.67 0.01 94 1011.8
20260503081509 61 208 1.7 5.2 0.00 0.67 0.01 97 1011.5
20260503081013 61 167 2.6 5.2 0.00 0.67 0.01 97 1011.6
20260503080530 61 185 2.6 5.2 0.00 0.67 0.01 97 1011.5
20260503072502 60 170 2.6 4.3 0.00 0.67 0.01 98 1011.3
20260503072004 60 180 2.6 6.1 0.00 0.67 0.01 98 1011.4
20260503071505 60 149 1.7 6.1 0.00 0.67 0.01 98 1011.3
20260503071003 60 162 2.6 6.1 0.00 0.67 0.01 98 1011.2
20260503070503 60 214 2.6 7.8 0.00 0.67 0.01 98 1011.1
20260503054951 58 130 0.9 3.5 0.00 0.68 0.01 98 1011.3
20260503054454 58 114 1.7 3.5 0.00 0.68 0.01 98 1011.3
20260503053950 58 114 0.9 3.5 0.00 0.68 0.01 98 1011.4
20260503053451 58 153 0.9 4.3 0.00 0.68 0.01 98 1011.4
20260503052953 58 127 0.9 4.3 0.00 0.68 0.01 98 1011.4
20260503052529 58 102 0.9 3.5 0.00 0.68 0.01 98 1011.5
20260503051451 57 131 0.0 1.7 0.00 0.68 0.01 98 1011.6
20260503050949 57 131 0.9 2.6 0.00 0.68 0.01 98 1011.5
20260503050448 57 131 0.9 2.6 0.00 0.68 0.01 98 1011.5
20260503045948 57 161 0.9 2.6 0.00 0.68 0.01 98 1011.6
20260503045447 57 112 0.9 2.6 0.00 0.68 0.01 98 1011.7
20260503045018 57 112 0.9 1.7 0.00 0.68 0.01 98 1011.6
20260503044111 57 112 0.9 1.7 0.00 0.68 0.01 98 1011.5
20260503042446 57 112 0.9 3.5 0.00 0.68 0.01 97 1011.6
20260503041944 57 112 0.9 3.5 0.00 0.68 0.01 98 1011.4
20260503041446 57 105 0.9 2.6 0.00 0.68 0.01 98 1011.5
20260503040945 57 106 0.9 2.6 0.00 0.68 0.01 98 1011.5
20260503040444 57 106 0.9 3.5 0.00 0.68 0.01 98 1011.5
20260503035942 57 106 0.9 3.5 0.00 0.68 0.01 98 1011.4
20260503035513 57 106 1.7 3.5 0.00 0.68 0.01 98 1011.6
20260503034512 57 100 0.9 5.2 0.00 0.68 0.01 98 1011.7
20260503033450 57 87 3.5 7.0 0.00 0.68 0.01 98 1011.5
20260503032939 57 81 4.3 7.0 0.00 0.68 0.01 98 1011.5
20260503032440 57 70 2.6 6.1 0.00 0.68 0.01 97 1011.6
20260503031939 57 94 0.9 2.6 0.00 0.68 0.01 97 1011.9
20260503031437 58 184 0.9 2.6 0.00 0.68 0.01 97 1012.1
20260503030938 58 219 0.9 2.6 0.00 0.68 0.01 97 1012.2
20260503030446 58 216 1.7 4.3 0.01 0.68 0.01 97 1012.3
20260503025937 58 110 1.7 4.3 0.01 0.68 0.01 97 1012.2
20260503025437 58 102 0.9 2.6 0.01 0.68 0.01 97 1012.5
20260503024934 58 71 1.7 2.6 0.01 0.68 0.01 97 1012.4
20260503024433 58 193 1.7 3.5 0.01 0.68 0.01 97 1012.7
20260503023933 58 175 1.7 3.5 0.01 0.68 0.01 97 1012.8
20260503023438 58 185 0.9 2.6 0.01 0.68 0.01 97 1012.7
20260503022934 58 170 0.9 2.6 0.01 0.68 0.01 97 1012.8
20260503022432 58 216 1.7 2.6 0.01 0.68 0.01 97 1012.9
20260503021934 58 203 1.7 2.6 0.01 0.68 0.01 97 1013.0
20260503021433 58 176 1.7 3.5 0.01 0.68 0.01 97 1013.0
20260503020933 58 209 1.7 4.3 0.01 0.68 0.01 97 1012.9
20260503020439 58 170 1.7 4.3 0.00 0.67 0.00 97 1012.9
20260503015933 58 182 0.9 2.6 0.00 0.67 0.00 97 1013.0
20260503015433 58 175 0.9 2.6 0.00 0.67 0.00 97 1013.0
20260503014935 57 166 0.9 1.7 0.00 0.67 0.00 97 1013.0
20260503014510 57 166 0.9 2.6 0.00 0.67 0.00 97 1012.9
20260503013424 57 161 0.9 3.5 0.00 0.67 0.00 97 1012.9
20260503012925 57 161 0.9 3.5 0.00 0.67 0.00 97 1012.9
20260503012428 57 120 0.9 4.3 0.00 0.67 0.00 97 1012.8
20260503011957 57 120 0.9 4.3 0.00 0.67 0.00 97 1012.8
20260503010925 57 119 0.9 4.3 0.00 0.67 0.00 97 1012.8